STARLINK-33924, 64149

Orbit data source: Space-Track

STARLINK-33924, 64149 is a payload satellite owned by SpaceX/Seattle (US) in SSO that was launched on Tue, 27 May 2025 UTC via an FALCON 9 launch vehicle from the Air Force Western Test Range (AFWTR). Payload-class satellites include a variety of spacecraft equipped with specific instruments for various scientific and technological missions. These include communications satellites like Starlink; space stations such as the ISS; scientific satellites like the Hubble; Earth observation satellites from companies like Planet Labs, Umbra, and HawkEye 360; GPS; miniature CubeSats for education and research; and military/defense satellites.

Loading next visibility...
Identifier
64149, 2025-112D
Orbit
SSO
Country
Flag of USUS
Related business
Manufacturer
SpaceX/Seattle
Mission
Operational Commercial Communications
Bus & Motor
STARLINK V2MO, Unknown motor
Mass
575 kg wet, ~530 kg dry
Launch date (UTC)
2025-05-27 (1 year ago)
Launch vehicle
FALCON 9
Launch site
Air Force Western Test Range (AFWTR)
Object type
Payload
Rocket body
Debris
Shape & HBR
Box + 2 Pan, 17.7 m
Radar Cross Section
36.964 m², Large (>1 m²)

Expand to show TLE details & history
Last TLE update: 19 hours ago

TLE from 19 hours ago
0 STARLINK-33924
1 64149U 25112D   26197.61469956  .00001278  00000-0  92424-4 0  9999
2 64149  97.2827 246.4016 0001332 105.8312 254.3062 15.05658188 62707
Epoch: 2026-07-16T14:45Z
TLE epoch observation values (Epoch: 2026-07-16T14:45:10.041Z)
Latitude
-0.00005°
Longitude
90.65614°
Altitude
552.81 km
Speed
7.585 km/s
True Right ascension
16h 25m 36s
True Declination
0° 00' 00"
Sunlit
Object was in full shadow at epoch
Visualization orbit readout
Latitude
Unknown
Longitude
Unknown
Altitude
Unknown
Speed
Unknown
Apparent Right ascension
Unknown
Apparent Declination
Unknown
Sunlit
N/A
Visualization observer readout
Local Sidereal Time
21:57:29
Azimuth
Unknown
Elevation
Unknown
Doppler factor
Unknown
Orbital elements
Apogee altitude
547.388 km
Perigee altitude
545.543 km
Semi-major axis
6,924.603 km
Eccentricity
0.00013
Inclination
97.2827°
RAAN
246.4016°
Arg. of periapsis
105.8312°
True anomaly
254.29151°
Mean anomaly
254.3062°
Eccentric anomaly
254.29885°
Mean motion
3.76661 °/min
Orbital period
95.58 mins
BSTAR
0.000092424
Loading maneuver chart data...
Computing Atmospheric mass density...
Loading historical data...
Loading historical data...
Loading historical data...
Loading historical data...
Loading historical data...
Loading historical data...
Loading historical data...

Documentation

Showing up to 5 results
|